Miscellaneous Local Product
Issued by NWS North Platte, NE

Home | Current Version | Previous Version | Graphics & Text | Print | Product List | Glossary On
Versions: 1 2 3 4 5 6 7 8 9 10 11 12 13 14 15 16 17 18 19 20 21 22 23 24 25 26 27 28 29 30 31 32 33 34 35 36 37 38 39 40 41 42 43 44 45 46 47 48 49 50
000
AXUS43 KLBF 201410
MISLBF


WESTERN AND NORTH CENTRAL NEBRASKA HOURLY WEATHER ROUNDUP
NATIONAL WEATHER SERVICE NORTH PLATTE NE
900 AM CDT SAT SEP 20 2014

***STATIONS NOT REPORTING VARIABLES SUCH AS SKY/WEATHER OR
PRESSURE ARE PROVIDED BY THE NEBRASKA DEPARTMENT OF
ROADS...RAWS...AND APRS NETWORKS...AND ARE NOT UNDER
NATIONAL WEATHER SERVICE QUALITY CONTROL***

...OBSERVATIONS IN AND NEAR THE EASTERN PANHANDLE OF NEBRASKA...

CITY           SKY/WX    TMP DP  RH WIND       PRES   REMARKS
PINE RIDGE     MOSUNNY   52  49  89 N5        30.11R
CHADRON        SUNNY     56  50  80 SW7       30.11S
ALLIANCE       SUNNY     54  48  80 W3        30.14R
SIDNEY         SUNNY     58  49  72 NW12      30.18R
WHITECLAY        N/A     52  46  82 CALM        N/A
RUSHVILLE        N/A     56  48  75 W6          N/A
CRESCENT LAKE    N/A     60  51  73 NW5         N/A
LISCO            N/A     61  49  65 W7          N/A
BIG SPRINGS      N/A     55  51  88 CALM        N/A
$$

...OBSERVATIONS IN NORTH CENTRAL NEBRASKA...

CITY           SKY/WX    TMP DP  RH WIND       PRES   REMARKS
VALENTINE      MOSUNNY   61  52  72 W3        30.04R
THEDFORD       SUNNY     62  53  73 NW6       30.06R
AINSWORTH      MOSUNNY   60  53  77 W3        30.02R
O`NEILL        MOSUNNY   64  59  86 W3        29.98S
ORD            SUNNY     67  54  63 N7        29.97R
BROKEN BOW     SUNNY     68  54  60 N12       30.01R
SPRINGVIEW       N/A     60  55  84 W3          N/A
ROSE             N/A     67  58  74 W5          N/A
NEWPORT          N/A     65  58  77 W8          N/A
COMSTOCK         N/A     72  61  68 NE3         N/A
CHAMBERS         N/A     66  59  78 W3          N/A
$$

...OBSERVATIONS IN SOUTHWEST NEBRASKA AND FAR NORTHEAST COLORADO...

CITY           SKY/WX    TMP DP  RH WIND       PRES   REMARKS
WRAY           FAIR      65  53  64 N9        30.10R
HOLYOKE        FAIR      63  54  72 N8        30.12R
IMPERIAL       SUNNY     64  52  64 N9        30.07R
OGALLALA       SUNNY     67  52  58 N8        30.09R
NORTH PLATTE   SUNNY     64  53  67 N9        30.04R
MCCOOK         SUNNY     67  56  67 NE15      29.99R
LEXINGTON      SUNNY     66  57  74 N8        30.00R
PAXTON           N/A     61  53  73 CALM        N/A
SUTHERLAND       N/A     63  52  68 NE5         N/A
BRADY            N/A     63  54  73 CALM        N/A
GOTHENBURG       N/A     64  51  64 NW3         N/A
CALLAWAY         N/A     63  55  74 N8          N/A
$$

...SOME WEATHER OBSERVATIONS FROM AROUND THE REGION...

CITY           SKY/WX    TMP DP  RH WIND       PRES   REMARKS
DENVER         MOSUNNY   60  48  64 N7        30.23R
LARAMIE        SUNNY     46  37  71 CALM      30.34R
CHEYENNE       SUNNY     54  43  66 W8        30.27R
SCOTTSBLUFF    SUNNY     56  49  77 NW9       30.17R
RAPID CITY     SUNNY     63  48  58 W5        30.08R
PIERRE         SUNNY     60  51  72 W10       29.94R
WINNER         FAIR      63  54  72 W9        29.99R
SIOUX FALLS    MOSUNNY   66  58  75 W6        29.90R
OMAHA          PTSUNNY   69  64  84 S8        29.92R
GRAND ISLAND   SUNNY     70  60  70 N12       29.97R
KANSAS CITY    MOSUNNY   71  69  93 S12       29.98F FOG
WICHITA        SUNNY     71  67  87 S8        30.00R FOG
HAYS           SUNNY     70  61  73 SW14      29.95S
LIBERAL        SUNNY     66  63  88 S9        30.03S
GOODLAND       SUNNY     64  56  75 N10       30.06R
$$



USA.gov is the U.S. government's official web portal to all federal, state and local government web resources and services.